Time,TemperatureF,DewpointF,PressureIn,WindDirection,WindDirectionDegrees,WindSpeedMPH,WindSpeedGustMPH,Humidity,HourlyPrecipIn,Conditions,Clouds,dailyrainin,SoftwareType,DateUTC
2013-05-25 00:04:00,45.0,45.0,29.94,SW,225,5.0,16.0,100,-0.45,,,0.00,Weather View 32 v70,2013-05-25 04:04:00,
2013-05-25 00:09:00,46.0,46.0,29.94,WSW,248,5.0,16.0,100,-0.45,,,0.00,Weather View 32 v70,2013-05-25 04:09:00,
2013-05-25 00:19:00,45.0,45.0,29.94,WSW,248,8.0,16.0,100,-0.44,,,0.02,Weather View 32 v70,2013-05-25 04:19:00,
2013-05-25 00:24:00,45.0,45.0,29.94,SSW,202,4.0,16.0,100,-0.43,,,0.03,Weather View 32 v70,2013-05-25 04:24:00,
2013-05-25 00:31:00,45.0,45.0,29.94,SW,225,6.0,16.0,100,-0.42,,,0.04,Weather View 32 v70,2013-05-25 04:31:00,
2013-05-25 00:39:00,45.0,45.0,29.93,SW,225,5.0,16.0,100,-0.42,,,0.05,Weather View 32 v70,2013-05-25 04:39:00,
2013-05-25 00:49:00,45.0,45.0,29.93,WSW,248,5.0,16.0,100,-0.40,,,0.07,Weather View 32 v70,2013-05-25 04:49:00,
2013-05-25 00:54:00,45.0,45.0,29.93,WSW,248,6.0,16.0,100,-0.41,,,0.07,Weather View 32 v70,2013-05-25 04:54:00,
2013-05-25 00:59:00,45.0,45.0,29.93,WNW,292,2.0,16.0,100,0.07,,,0.07,Weather View 32 v70,2013-05-25 04:59:00,
2013-05-25 01:04:00,45.0,45.0,29.93,SW,225,4.0,13.0,100,0.08,,,0.08,Weather View 32 v70,2013-05-25 05:04:00,
2013-05-25 01:14:00,45.0,45.0,29.93,SW,225,5.0,13.0,100,0.08,,,0.09,Weather View 32 v70,2013-05-25 05:14:00,
2013-05-25 01:19:00,45.0,45.0,29.93,WNW,292,10.0,13.0,100,0.07,,,0.09,Weather View 32 v70,2013-05-25 05:19:00,
2013-05-25 01:24:00,45.0,45.0,29.93,SW,225,8.0,13.0,100,0.07,,,0.10,Weather View 32 v70,2013-05-25 05:24:00,
2013-05-25 01:29:00,45.0,45.0,29.93,South,180,7.0,15.0,100,0.06,,,0.10,Weather View 32 v70,2013-05-25 05:29:00,
2013-05-25 01:34:00,45.0,45.0,29.93,SSW,202,8.0,18.0,100,0.06,,,0.11,Weather View 32 v70,2013-05-25 05:34:00,
2013-05-25 01:39:00,45.0,45.0,29.93,West,270,9.0,18.0,100,0.06,,,0.11,Weather View 32 v70,2013-05-25 05:39:00,
2013-05-25 01:49:00,45.0,45.0,29.92,South,180,6.0,18.0,100,0.05,,,0.12,Weather View 32 v70,2013-05-25 05:49:00,
2013-05-25 01:54:00,45.0,45.0,29.92,South,180,9.0,18.0,100,0.06,,,0.13,Weather View 32 v70,2013-05-25 05:54:00,
2013-05-25 01:59:00,45.0,45.0,29.92,SW,225,7.0,18.0,100,0.06,,,0.13,Weather View 32 v70,2013-05-25 05:59:00,
2013-05-25 02:09:00,45.0,45.0,29.91,SSW,202,6.0,18.0,100,0.06,,,0.14,Weather View 32 v70,2013-05-25 06:09:00,
2013-05-25 02:14:00,45.0,45.0,29.91,SSW,202,5.0,18.0,100,0.05,,,0.14,Weather View 32 v70,2013-05-25 06:14:00,
2013-05-25 02:19:00,45.0,45.0,29.91,SSW,202,8.0,18.0,100,0.05,,,0.14,Weather View 32 v70,2013-05-25 06:19:00,
2013-05-25 02:29:00,45.0,45.0,29.91,SSW,202,6.0,18.0,100,0.05,,,0.15,Weather View 32 v70,2013-05-25 06:29:00,
2013-05-25 02:34:00,45.0,45.0,29.90,SW,225,8.0,18.0,100,0.05,,,0.16,Weather View 32 v70,2013-05-25 06:34:00,
2013-05-25 02:39:00,45.0,45.0,29.90,SSW,202,8.0,15.0,100,0.06,,,0.17,Weather View 32 v70,2013-05-25 06:39:00,
2013-05-25 02:44:00,45.0,45.0,29.90,SW,225,5.0,15.0,100,0.05,,,0.17,Weather View 32 v70,2013-05-25 06:44:00,
2013-05-25 02:49:00,45.0,45.0,29.90,South,180,3.0,15.0,100,0.06,,,0.18,Weather View 32 v70,2013-05-25 06:49:00,
2013-05-25 02:54:00,45.0,45.0,29.90,SSW,202,6.0,15.0,100,0.05,,,0.18,Weather View 32 v70,2013-05-25 06:54:00,
2013-05-25 03:04:00,45.0,45.0,29.90,WSW,248,5.0,15.0,100,0.06,,,0.19,Weather View 32 v70,2013-05-25 07:04:00,
2013-05-25 03:09:00,45.0,45.0,29.90,SSW,202,2.0,15.0,100,0.05,,,0.19,Weather View 32 v70,2013-05-25 07:09:00,
2013-05-25 03:14:00,46.0,46.0,29.90,SW,225,5.0,15.0,100,0.06,,,0.20,Weather View 32 v70,2013-05-25 07:14:00,
2013-05-25 03:19:00,46.0,46.0,29.90,SW,225,5.0,15.0,100,0.06,,,0.20,Weather View 32 v70,2013-05-25 07:19:00,
2013-05-25 03:24:00,46.0,46.0,29.90,SSW,202,4.0,14.0,100,0.05,,,0.20,Weather View 32 v70,2013-05-25 07:24:00,
2013-05-25 03:29:00,46.0,46.0,29.90,West,270,3.0,11.0,100,0.06,,,0.21,Weather View 32 v70,2013-05-25 07:29:00,
2013-05-25 03:34:00,46.0,46.0,29.90,SW,225,4.0,11.0,100,0.05,,,0.21,Weather View 32 v70,2013-05-25 07:34:00,
2013-05-25 03:44:00,46.0,46.0,29.90,SW,225,5.0,11.0,100,0.05,,,0.22,Weather View 32 v70,2013-05-25 07:44:00,
2013-05-25 03:49:00,46.0,46.0,29.90,SW,225,6.0,13.0,100,0.04,,,0.22,Weather View 32 v70,2013-05-25 07:49:00,
2013-05-25 03:54:00,46.0,46.0,29.89,SSW,202,6.0,13.0,100,0.05,,,0.23,Weather View 32 v70,2013-05-25 07:54:00,
2013-05-25 03:59:00,46.0,46.0,29.90,SW,225,5.0,13.0,100,0.05,,,0.23,Weather View 32 v70,2013-05-25 07:59:00,
2013-05-25 04:04:00,46.0,46.0,29.90,South,180,5.0,13.0,100,0.04,,,0.23,Weather View 32 v70,2013-05-25 08:04:00,
2013-05-25 04:09:00,46.0,46.0,29.89,SW,225,2.0,13.0,100,0.05,,,0.24,Weather View 32 v70,2013-05-25 08:09:00,
2013-05-25 04:19:00,46.0,46.0,29.89,SW,225,10.0,13.0,100,0.05,,,0.25,Weather View 32 v70,2013-05-25 08:19:00,
2013-05-25 04:24:00,47.0,47.0,29.89,SW,225,6.0,14.0,100,0.05,,,0.25,Weather View 32 v70,2013-05-25 08:24:00,
2013-05-25 04:29:00,46.0,46.0,29.89,West,270,2.0,14.0,100,0.04,,,0.25,Weather View 32 v70,2013-05-25 08:29:00,
2013-05-25 04:34:00,47.0,47.0,29.89,West,270,8.0,15.0,100,0.04,,,0.25,Weather View 32 v70,2013-05-25 08:34:00,
2013-05-25 04:39:00,47.0,47.0,29.90,West,270,4.0,15.0,100,0.04,,,0.25,Weather View 32 v70,2013-05-25 08:39:00,
2013-05-25 04:49:00,47.0,47.0,29.90,SW,225,6.0,15.0,100,0.03,,,0.25,Weather View 32 v70,2013-05-25 08:49:00,
2013-05-25 04:54:00,47.0,47.0,29.90,SW,225,5.0,15.0,100,0.02,,,0.25,Weather View 32 v70,2013-05-25 08:54:00,
2013-05-25 04:59:00,47.0,47.0,29.90,SW,225,10.0,15.0,100,0.02,,,0.25,Weather View 32 v70,2013-05-25 08:59:00,
2013-05-25 05:04:00,47.0,47.0,29.90,West,270,3.0,15.0,100,0.02,,,0.25,Weather View 32 v70,2013-05-25 09:04:00,
2013-05-25 05:09:00,46.0,46.0,29.90,WSW,248,5.0,15.0,100,0.01,,,0.25,Weather View 32 v70,2013-05-25 09:09:00,
2013-05-25 05:19:00,46.0,46.0,29.90,SSW,202,9.0,17.0,100,0.00,,,0.25,Weather View 32 v70,2013-05-25 09:19:00,
2013-05-25 05:24:00,46.0,46.0,29.89,SW,225,10.0,17.0,100,0.00,,,0.25,Weather View 32 v70,2013-05-25 09:24:00,
2013-05-25 05:29:00,46.0,46.0,29.89,SSW,202,6.0,17.0,100,0.00,,,0.25,Weather View 32 v70,2013-05-25 09:29:00,
2013-05-25 05:34:00,46.0,46.0,29.90,South,180,15.0,18.0,100,0.00,,,0.25,Weather View 32 v70,2013-05-25 09:34:00,
2013-05-25 05:39:00,46.0,46.0,29.90,SW,225,9.0,22.0,100,0.00,,,0.25,Weather View 32 v70,2013-05-25 09:39:00,
2013-05-25 05:44:00,46.0,46.0,29.90,SW,225,9.0,22.0,100,0.00,,,0.25,Weather View 32 v70,2013-05-25 09:44:00,
2013-05-25 05:49:00,46.0,46.0,29.90,SW,225,8.0,22.0,100,0.00,,,0.25,Weather View 32 v70,2013-05-25 09:49:00,
2013-05-25 05:54:00,46.0,46.0,29.90,SSW,202,9.0,22.0,100,0.00,,,0.25,Weather View 32 v70,2013-05-25 09:54:00,
2013-05-25 05:59:00,46.0,46.0,29.90,SSW,202,6.0,22.0,100,0.00,,,0.25,Weather View 32 v70,2013-05-25 09:59:00,
2013-05-25 06:09:00,46.0,46.0,29.90,WSW,248,8.0,22.0,100,0.00,,,0.25,Weather View 32 v70,2013-05-25 10:09:00,
2013-05-25 06:14:00,46.0,46.0,29.90,South,180,6.0,22.0,100,0.00,,,0.25,Weather View 32 v70,2013-05-25 10:14:00,
2013-05-25 06:19:00,46.0,46.0,29.91,SW,225,16.0,22.0,100,0.00,,,0.25,Weather View 32 v70,2013-05-25 10:19:00,
2013-05-25 06:24:00,46.0,46.0,29.91,SW,225,10.0,22.0,100,0.01,,,0.26,Weather View 32 v70,2013-05-25 10:24:00,
2013-05-25 06:29:00,46.0,46.0,29.91,SSW,202,8.0,22.0,100,0.01,,,0.26,Weather View 32 v70,2013-05-25 10:29:00,
2013-05-25 06:34:00,46.0,46.0,29.91,WSW,248,12.0,22.0,100,0.01,,,0.26,Weather View 32 v70,2013-05-25 10:34:00,
2013-05-25 06:44:00,46.0,46.0,29.91,WSW,248,10.0,22.0,100,0.01,,,0.26,Weather View 32 v70,2013-05-25 10:44:00,
2013-05-25 06:49:00,46.0,46.0,29.91,SW,225,6.0,22.0,100,0.01,,,0.26,Weather View 32 v70,2013-05-25 10:49:00,
2013-05-25 06:54:00,46.0,46.0,29.91,WSW,248,6.0,22.0,100,0.01,,,0.26,Weather View 32 v70,2013-05-25 10:54:00,
2013-05-25 06:59:00,46.0,46.0,29.91,SW,225,11.0,22.0,100,0.01,,,0.26,Weather View 32 v70,2013-05-25 10:59:00,
2013-05-25 07:09:00,47.0,47.0,29.91,SW,225,13.0,22.0,100,0.01,,,0.26,Weather View 32 v70,2013-05-25 11:09:00,
2013-05-25 07:14:00,47.0,47.0,29.91,SSW,202,6.0,22.0,100,0.01,,,0.26,Weather View 32 v70,2013-05-25 11:14:00,
2013-05-25 07:19:00,47.0,47.0,29.91,SW,225,6.0,22.0,100,0.01,,,0.26,Weather View 32 v70,2013-05-25 11:19:00,
2013-05-25 07:29:00,48.0,47.7,29.91,SSW,202,6.0,22.0,99,0.00,,,0.26,Weather View 32 v70,2013-05-25 11:29:00,
2013-05-25 07:35:00,48.0,47.5,29.91,West,270,11.0,22.0,98,0.00,,,0.26,Weather View 32 v70,2013-05-25 11:35:00,
2013-05-25 07:44:00,48.0,46.6,29.91,South,180,7.0,18.0,95,0.00,,,0.26,Weather View 32 v70,2013-05-25 11:44:00,
2013-05-25 07:49:00,49.0,46.8,29.91,WSW,248,10.0,18.0,92,0.00,,,0.26,Weather View 32 v70,2013-05-25 11:49:00,
2013-05-25 07:54:00,49.0,46.5,29.91,West,270,6.0,18.0,91,0.00,,,0.26,Weather View 32 v70,2013-05-25 11:54:00,
2013-05-25 07:59:00,49.0,46.2,29.91,South,180,5.0,18.0,90,0.00,,,0.26,Weather View 32 v70,2013-05-25 11:59:00,
2013-05-25 08:04:00,49.0,45.6,29.91,South,180,9.0,23.0,88,0.00,,,0.26,Weather View 32 v70,2013-05-25 12:04:00,
2013-05-25 08:09:00,49.0,45.3,29.91,SSW,202,8.0,23.0,87,0.00,,,0.26,Weather View 32 v70,2013-05-25 12:09:00,
2013-05-25 08:14:00,49.0,45.0,29.91,SSW,202,8.0,24.0,86,0.00,,,0.26,Weather View 32 v70,2013-05-25 12:14:00,
2013-05-25 08:24:00,49.0,44.4,29.91,WSW,248,18.0,24.0,84,0.00,,,0.26,Weather View 32 v70,2013-05-25 12:24:00,
2013-05-25 08:29:00,49.0,44.4,29.92,SW,225,6.0,24.0,84,0.00,,,0.26,Weather View 32 v70,2013-05-25 12:29:00,
2013-05-25 08:34:00,50.0,45.3,29.92,SW,225,12.0,24.0,84,0.00,,,0.26,Weather View 32 v70,2013-05-25 12:34:00,
2013-05-25 08:39:00,50.0,45.0,29.92,SSW,202,10.0,24.0,83,0.00,,,0.26,Weather View 32 v70,2013-05-25 12:39:00,
2013-05-25 08:49:00,50.0,44.7,29.92,SSW,202,13.0,24.0,82,0.00,,,0.26,Weather View 32 v70,2013-05-25 12:49:00,
2013-05-25 08:54:00,51.0,45.0,29.93,SW,225,10.0,24.0,80,0.00,,,0.26,Weather View 32 v70,2013-05-25 12:54:00,
2013-05-25 08:59:00,51.0,44.7,29.93,SW,225,6.0,24.0,79,0.00,,,0.26,Weather View 32 v70,2013-05-25 12:59:00,
2013-05-25 09:09:00,51.0,44.0,29.92,SW,225,12.0,24.0,77,0.00,,,0.26,Weather View 32 v70,2013-05-25 13:09:00,
2013-05-25 09:14:00,51.0,44.0,29.92,West,270,8.0,24.0,77,0.00,,,0.26,Weather View 32 v70,2013-05-25 13:14:00,
2013-05-25 09:19:00,51.0,43.7,29.92,SW,225,13.0,24.0,76,0.00,,,0.26,Weather View 32 v70,2013-05-25 13:19:00,
2013-05-25 09:24:00,52.0,44.0,29.92,West,270,8.0,24.0,74,0.00,,,0.26,Weather View 32 v70,2013-05-25 13:24:00,
2013-05-25 09:34:00,53.0,44.9,29.92,WSW,248,6.0,29.0,74,0.00,,,0.26,Weather View 32 v70,2013-05-25 13:34:00,
2013-05-25 09:39:00,53.0,43.5,29.92,WSW,248,10.0,29.0,70,0.00,,,0.26,Weather View 32 v70,2013-05-25 13:39:00,
2013-05-25 09:49:00,53.0,43.5,29.92,SW,225,13.0,29.0,70,0.00,,,0.26,Weather View 32 v70,2013-05-25 13:49:00,
2013-05-25 09:59:00,54.0,44.8,29.91,SW,225,11.0,29.0,71,0.00,,,0.26,Weather View 32 v70,2013-05-25 13:59:00,
2013-05-25 10:04:00,54.0,44.0,29.91,SW,225,5.0,29.0,69,0.00,,,0.26,Weather View 32 v70,2013-05-25 14:04:00,
2013-05-25 10:14:00,55.0,44.6,29.91,South,180,9.0,29.0,68,0.00,,,0.26,Weather View 32 v70,2013-05-25 14:14:00,
2013-05-25 10:19:00,56.0,46.0,29.91,WSW,248,8.0,29.0,69,0.00,,,0.26,Weather View 32 v70,2013-05-25 14:19:00,
2013-05-25 10:24:00,55.0,42.6,29.91,South,180,15.0,30.0,63,0.00,,,0.26,Weather View 32 v70,2013-05-25 14:24:00,
2013-05-25 10:29:00,56.0,43.6,29.91,SW,225,10.0,30.0,63,0.00,,,0.26,Weather View 32 v70,2013-05-25 14:29:00,
2013-05-25 10:34:00,55.0,41.8,29.91,SW,225,17.0,30.0,61,0.00,,,0.26,Weather View 32 v70,2013-05-25 14:34:00,
2013-05-25 10:44:00,56.0,42.7,29.91,SSW,202,11.0,30.0,61,0.00,,,0.26,Weather View 32 v70,2013-05-25 14:44:00,
2013-05-25 10:54:00,56.0,41.4,29.91,SW,225,19.0,34.0,58,0.00,,,0.26,Weather View 32 v70,2013-05-25 14:54:00,
2013-05-25 10:59:00,56.0,41.8,29.91,SSW,202,12.0,34.0,59,0.00,,,0.26,Weather View 32 v70,2013-05-25 14:59:00,
2013-05-25 11:04:00,56.0,42.3,29.91,SSW,202,20.0,34.0,60,0.00,,,0.26,Weather View 32 v70,2013-05-25 15:04:00,
2013-05-25 11:09:00,56.0,41.8,29.92,SW,225,6.0,34.0,59,0.00,,,0.26,Weather View 32 v70,2013-05-25 15:09:00,
2013-05-25 11:14:00,57.0,43.7,29.92,WNW,292,10.0,34.0,61,0.00,,,0.26,Weather View 32 v70,2013-05-25 15:14:00,
2013-05-25 11:24:00,57.0,42.3,29.91,SSW,202,18.0,34.0,58,0.00,,,0.26,Weather View 32 v70,2013-05-25 15:24:00,
2013-05-25 11:29:00,57.0,42.3,29.92,SW,225,11.0,34.0,58,0.00,,,0.26,Weather View 32 v70,2013-05-25 15:29:00,
2013-05-25 11:34:00,57.0,41.9,29.91,SSW,202,19.0,34.0,57,0.00,,,0.26,Weather View 32 v70,2013-05-25 15:34:00,
2013-05-25 11:39:00,58.0,42.8,29.92,SSW,202,10.0,34.0,57,0.00,,,0.26,Weather View 32 v70,2013-05-25 15:39:00,
2013-05-25 11:44:00,57.0,41.4,29.92,SSW,202,23.0,34.0,56,0.00,,,0.26,Weather View 32 v70,2013-05-25 15:44:00,
2013-05-25 11:49:00,57.0,41.4,29.92,SW,225,25.0,34.0,56,0.00,,,0.26,Weather View 32 v70,2013-05-25 15:49:00,
2013-05-25 11:59:00,57.0,41.4,29.91,WSW,248,15.0,32.0,56,0.00,,,0.26,Weather View 32 v70,2013-05-25 15:59:00,
2013-05-25 12:09:00,57.0,41.0,29.92,WSW,248,13.0,32.0,55,0.00,,,0.26,Weather View 32 v70,2013-05-25 16:09:00,
2013-05-25 12:19:00,57.0,40.5,29.92,WSW,248,13.0,32.0,54,0.00,,,0.26,Weather View 32 v70,2013-05-25 16:19:00,
2013-05-25 12:24:00,57.0,41.0,29.92,SW,225,14.0,32.0,55,0.00,,,0.26,Weather View 32 v70,2013-05-25 16:24:00,
2013-05-25 12:29:00,57.0,41.0,29.92,SW,225,12.0,32.0,55,0.00,,,0.26,Weather View 32 v70,2013-05-25 16:29:00,
2013-05-25 12:38:00,58.0,41.9,29.92,SSW,202,13.0,32.0,55,0.00,,,0.26,Weather View 32 v70,2013-05-25 16:38:00,
2013-05-25 12:44:00,57.0,40.5,29.92,SW,225,11.0,32.0,54,0.00,,,0.26,Weather View 32 v70,2013-05-25 16:44:00,
2013-05-25 12:49:00,58.0,41.9,29.92,SSW,202,12.0,29.0,55,0.00,,,0.26,Weather View 32 v70,2013-05-25 16:49:00,
2013-05-25 12:59:00,59.0,41.4,29.91,South,180,8.0,29.0,52,0.00,,,0.26,Weather View 32 v70,2013-05-25 16:59:00,
2013-05-25 13:04:00,59.0,41.4,29.91,WNW,292,20.0,29.0,52,0.00,,,0.26,Weather View 32 v70,2013-05-25 17:04:00,
2013-05-25 13:09:00,58.0,40.4,29.91,South,180,6.0,28.0,52,0.00,,,0.26,Weather View 32 v70,2013-05-25 17:09:00,
2013-05-25 13:14:00,58.0,40.4,29.91,SW,225,11.0,28.0,52,0.00,,,0.26,Weather View 32 v70,2013-05-25 17:14:00,
2013-05-25 13:19:00,58.0,39.4,29.92,WSW,248,13.0,28.0,50,0.00,,,0.26,Weather View 32 v70,2013-05-25 17:19:00,
2013-05-25 13:24:00,58.0,40.4,29.92,SW,225,16.0,27.0,52,0.00,,,0.26,Weather View 32 v70,2013-05-25 17:24:00,
2013-05-25 13:29:00,58.0,39.9,29.92,SW,225,17.0,27.0,51,0.00,,,0.26,Weather View 32 v70,2013-05-25 17:29:00,
2013-05-25 13:34:00,58.0,40.4,29.92,WNW,292,12.0,27.0,52,0.00,,,0.26,Weather View 32 v70,2013-05-25 17:34:00,
2013-05-25 13:39:00,58.0,40.4,29.91,SW,225,8.0,27.0,52,0.00,,,0.26,Weather View 32 v70,2013-05-25 17:39:00,
2013-05-25 13:49:00,58.0,39.9,29.92,SW,225,13.0,29.0,51,0.00,,,0.26,Weather View 32 v70,2013-05-25 17:49:00,
2013-05-25 13:54:00,58.0,39.4,29.91,WNW,292,8.0,29.0,50,0.00,,,0.26,Weather View 32 v70,2013-05-25 17:54:00,
2013-05-25 13:59:00,58.0,38.9,29.92,WSW,248,11.0,29.0,49,0.00,,,0.26,Weather View 32 v70,2013-05-25 17:59:00,
2013-05-25 14:04:00,58.0,39.9,29.92,SSW,202,10.0,29.0,51,0.00,,,0.26,Weather View 32 v70,2013-05-25 18:04:00,
2013-05-25 14:09:00,57.0,39.0,29.92,SW,225,8.0,29.0,51,0.00,,,0.26,Weather View 32 v70,2013-05-25 18:09:00,
2013-05-25 14:14:00,58.0,40.4,29.92,WSW,248,9.0,29.0,52,0.00,,,0.26,Weather View 32 v70,2013-05-25 18:14:00,
2013-05-25 14:19:00,58.0,39.9,29.92,SSW,202,13.0,29.0,51,0.00,,,0.26,Weather View 32 v70,2013-05-25 18:19:00,
2013-05-25 14:24:00,58.0,40.4,29.92,SSW,202,13.0,29.0,52,0.00,,,0.26,Weather View 32 v70,2013-05-25 18:24:00,
2013-05-25 14:29:00,58.0,40.4,29.91,WSW,248,7.0,29.0,52,0.00,,,0.26,Weather View 32 v70,2013-05-25 18:29:00,
2013-05-25 14:34:00,58.0,40.4,29.92,SW,225,12.0,29.0,52,0.00,,,0.26,Weather View 32 v70,2013-05-25 18:34:00,
2013-05-25 14:39:00,58.0,38.9,29.92,SSW,202,19.0,30.0,49,0.00,,,0.26,Weather View 32 v70,2013-05-25 18:39:00,
2013-05-25 14:49:00,59.0,40.3,29.92,SSW,202,13.0,31.0,50,0.00,,,0.26,Weather View 32 v70,2013-05-25 18:49:00,
2013-05-25 14:54:00,58.0,38.9,29.92,WSW,248,22.0,33.0,49,0.00,,,0.26,Weather View 32 v70,2013-05-25 18:54:00,
2013-05-25 15:04:00,58.0,38.9,29.92,West,270,13.0,33.0,49,0.00,,,0.26,Weather View 32 v70,2013-05-25 19:04:00,
2013-05-25 15:09:00,58.0,38.9,29.92,SSW,202,20.0,33.0,49,0.00,,,0.26,Weather View 32 v70,2013-05-25 19:09:00,
2013-05-25 15:14:00,58.0,38.4,29.91,SW,225,17.0,33.0,48,0.00,,,0.26,Weather View 32 v70,2013-05-25 19:14:00,
2013-05-25 15:19:00,59.0,39.3,29.91,WSW,248,17.0,33.0,48,0.00,,,0.26,Weather View 32 v70,2013-05-25 19:19:00,
2013-05-25 15:24:00,59.0,39.3,29.91,West,270,8.0,33.0,48,0.00,,,0.26,Weather View 32 v70,2013-05-25 19:24:00,
2013-05-25 15:29:00,59.0,39.3,29.91,SSW,202,11.0,33.0,48,0.00,,,0.26,Weather View 32 v70,2013-05-25 19:29:00,
2013-05-25 15:39:00,59.0,39.3,29.91,SSW,202,8.0,33.0,48,0.00,,,0.26,Weather View 32 v70,2013-05-25 19:39:00,
2013-05-25 15:44:00,59.0,38.8,29.91,SW,225,20.0,33.0,47,0.00,,,0.26,Weather View 32 v70,2013-05-25 19:44:00,
2013-05-25 15:49:00,59.0,38.2,29.91,SSW,202,16.0,37.0,46,0.00,,,0.26,Weather View 32 v70,2013-05-25 19:49:00,
2013-05-25 15:54:00,60.0,39.1,29.91,WSW,248,9.0,37.0,46,0.00,,,0.26,Weather View 32 v70,2013-05-25 19:54:00,
2013-05-25 15:59:00,60.0,39.1,29.91,WSW,248,6.0,37.0,46,0.00,,,0.26,Weather View 32 v70,2013-05-25 19:59:00,
2013-05-25 16:09:00,60.0,39.7,29.91,WSW,248,6.0,37.0,47,0.00,,,0.26,Weather View 32 v70,2013-05-25 20:09:00,
2013-05-25 16:19:00,59.0,37.1,29.91,South,180,13.0,37.0,44,0.00,,,0.26,Weather View 32 v70,2013-05-25 20:19:00,
2013-05-25 16:29:00,60.0,38.5,29.91,South,180,10.0,37.0,45,0.00,,,0.26,Weather View 32 v70,2013-05-25 20:29:00,
2013-05-25 16:34:00,59.0,37.1,29.91,WSW,248,23.0,37.0,44,0.00,,,0.26,Weather View 32 v70,2013-05-25 20:34:00,
2013-05-25 16:40:00,59.0,37.6,29.91,SW,225,10.0,37.0,45,0.00,,,0.26,Weather View 32 v70,2013-05-25 20:40:00,
2013-05-25 16:49:00,59.0,37.1,29.91,WSW,248,13.0,37.0,44,0.00,,,0.26,Weather View 32 v70,2013-05-25 20:49:00,
2013-05-25 16:54:00,59.0,37.6,29.91,WSW,248,8.0,31.0,45,0.00,,,0.26,Weather View 32 v70,2013-05-25 20:54:00,
2013-05-25 16:59:00,59.0,37.1,29.91,SSW,202,13.0,31.0,44,0.00,,,0.26,Weather View 32 v70,2013-05-25 20:59:00,
2013-05-25 17:04:00,59.0,37.1,29.92,SW,225,19.0,31.0,44,0.00,,,0.26,Weather View 32 v70,2013-05-25 21:04:00,
2013-05-25 17:09:00,59.0,37.6,29.91,SW,225,11.0,31.0,45,0.00,,,0.26,Weather View 32 v70,2013-05-25 21:09:00,
2013-05-25 17:14:00,59.0,37.6,29.92,SSW,202,8.0,31.0,45,0.00,,,0.26,Weather View 32 v70,2013-05-25 21:14:00,
2013-05-25 17:20:00,59.0,37.1,29.92,SW,225,10.0,31.0,44,0.00,,,0.26,Weather View 32 v70,2013-05-25 21:20:00,
2013-05-25 17:29:00,59.0,36.5,29.92,WSW,248,8.0,27.0,43,0.00,,,0.26,Weather View 32 v70,2013-05-25 21:29:00,
2013-05-25 17:34:00,60.0,37.4,29.92,West,270,6.0,27.0,43,0.00,,,0.26,Weather View 32 v70,2013-05-25 21:34:00,
2013-05-25 17:39:00,59.0,37.1,29.92,WSW,248,10.0,27.0,44,0.00,,,0.26,Weather View 32 v70,2013-05-25 21:39:00,
2013-05-25 17:44:00,59.0,37.1,29.92,WSW,248,15.0,27.0,44,0.00,,,0.26,Weather View 32 v70,2013-05-25 21:44:00,
2013-05-25 17:49:00,59.0,37.6,29.93,SSW,202,14.0,27.0,45,0.00,,,0.26,Weather View 32 v70,2013-05-25 21:49:00,
2013-05-25 17:54:00,59.0,37.1,29.93,WSW,248,13.0,27.0,44,0.00,,,0.26,Weather View 32 v70,2013-05-25 21:54:00,
2013-05-25 18:04:00,59.0,36.5,29.93,SW,225,13.0,27.0,43,0.00,,,0.26,Weather View 32 v70,2013-05-25 22:04:00,
2013-05-25 18:09:00,58.0,35.6,29.93,SW,225,13.0,27.0,43,0.00,,,0.26,Weather View 32 v70,2013-05-25 22:09:00,
2013-05-25 18:19:00,58.0,36.7,29.94,SW,225,13.0,27.0,45,0.00,,,0.26,Weather View 32 v70,2013-05-25 22:19:00,
2013-05-25 18:29:00,58.0,36.7,29.94,SSW,202,8.0,26.0,45,0.00,,,0.26,Weather View 32 v70,2013-05-25 22:29:00,
2013-05-25 18:34:00,58.0,36.7,29.94,West,270,8.0,26.0,45,0.00,,,0.26,Weather View 32 v70,2013-05-25 22:34:00,
2013-05-25 18:39:00,58.0,37.3,29.95,West,270,7.0,26.0,46,0.00,,,0.26,Weather View 32 v70,2013-05-25 22:39:00,
2013-05-25 18:49:00,58.0,36.7,29.95,SW,225,10.0,26.0,45,0.00,,,0.26,Weather View 32 v70,2013-05-25 22:49:00,
2013-05-25 18:54:00,57.0,35.3,29.95,South,180,14.0,29.0,44,0.00,,,0.26,Weather View 32 v70,2013-05-25 22:54:00,
2013-05-25 18:59:00,57.0,35.3,29.95,SSW,202,11.0,29.0,44,0.00,,,0.26,Weather View 32 v70,2013-05-25 22:59:00,
2013-05-25 19:04:00,57.0,36.4,29.96,WSW,248,3.0,29.0,46,0.00,,,0.26,Weather View 32 v70,2013-05-25 23:04:00,
2013-05-25 19:09:00,57.0,35.3,29.95,WSW,248,11.0,29.0,44,0.00,,,0.26,Weather View 32 v70,2013-05-25 23:09:00,
2013-05-25 19:19:00,57.0,35.8,29.96,SSW,202,14.0,29.0,45,0.00,,,0.26,Weather View 32 v70,2013-05-25 23:19:00,
2013-05-25 19:29:00,57.0,35.8,29.96,SSW,202,11.0,29.0,45,0.00,,,0.26,Weather View 32 v70,2013-05-25 23:29:00,
2013-05-25 19:41:00,57.0,36.4,29.96,WNW,292,5.0,29.0,46,0.00,,,0.26,Weather View 32 v70,2013-05-25 23:41:00,
2013-05-25 19:49:00,57.0,36.4,29.96,SSW,202,5.0,29.0,46,0.00,,,0.26,Weather View 32 v70,2013-05-25 23:49:00,
2013-05-25 19:54:00,57.0,36.9,29.96,SW,225,3.0,29.0,47,0.00,,,0.26,Weather View 32 v70,2013-05-25 23:54:00,
2013-05-25 20:04:00,57.0,36.9,29.96,SSW,202,8.0,22.0,47,0.00,,,0.26,Weather View 32 v70,2013-05-26 00:04:00,
2013-05-25 20:09:00,57.0,37.5,29.97,SSW,202,8.0,22.0,48,0.00,,,0.26,Weather View 32 v70,2013-05-26 00:09:00,
2013-05-25 20:19:00,57.0,36.9,29.97,West,270,8.0,22.0,47,0.00,,,0.26,Weather View 32 v70,2013-05-26 00:19:00,
2013-05-25 20:29:00,57.0,35.8,29.97,South,180,7.0,25.0,45,0.00,,,0.26,Weather View 32 v70,2013-05-26 00:29:00,
2013-05-25 20:34:00,57.0,35.8,29.97,SW,225,5.0,25.0,45,0.00,,,0.26,Weather View 32 v70,2013-05-26 00:34:00,
2013-05-25 20:42:00,57.0,35.3,29.97,WSW,248,7.0,28.0,44,0.00,,,0.26,Weather View 32 v70,2013-05-26 00:42:00,
2013-05-25 20:49:00,57.0,35.3,29.97,SW,225,10.0,28.0,44,0.00,,,0.26,Weather View 32 v70,2013-05-26 00:49:00,
2013-05-25 20:54:00,57.0,35.3,29.97,West,270,17.0,28.0,44,0.00,,,0.26,Weather View 32 v70,2013-05-26 00:54:00,
2013-05-25 20:59:00,56.0,34.9,29.97,SSW,202,5.0,28.0,45,0.00,,,0.26,Weather View 32 v70,2013-05-26 00:59:00,
2013-05-25 21:09:00,56.0,35.5,29.97,SW,225,7.0,28.0,46,0.00,,,0.26,Weather View 32 v70,2013-05-26 01:09:00,
2013-05-25 21:14:00,56.0,35.5,29.97,SW,225,8.0,28.0,46,0.00,,,0.26,Weather View 32 v70,2013-05-26 01:14:00,
2013-05-25 21:19:00,56.0,35.5,29.97,South,180,4.0,28.0,46,0.00,,,0.26,Weather View 32 v70,2013-05-26 01:19:00,
2013-05-25 21:29:00,56.0,35.5,29.98,SSW,202,11.0,28.0,46,0.00,,,0.26,Weather View 32 v70,2013-05-26 01:29:00,
2013-05-25 21:34:00,56.0,35.5,29.98,SW,225,7.0,28.0,46,0.00,,,0.26,Weather View 32 v70,2013-05-26 01:34:00,
2013-05-25 21:42:00,56.0,35.5,29.98,WSW,248,7.0,23.0,46,0.00,,,0.26,Weather View 32 v70,2013-05-26 01:42:00,
2013-05-25 21:49:00,55.0,35.1,29.98,SSW,202,6.0,19.0,47,0.00,,,0.26,Weather View 32 v70,2013-05-26 01:49:00,
2013-05-25 21:54:00,55.0,35.1,29.98,SSW,202,11.0,19.0,47,0.00,,,0.26,Weather View 32 v70,2013-05-26 01:54:00,
2013-05-25 21:59:00,55.0,35.1,29.98,SSW,202,8.0,19.0,47,0.00,,,0.26,Weather View 32 v70,2013-05-26 01:59:00,
2013-05-25 22:09:00,55.0,35.6,29.98,SW,225,7.0,18.0,48,0.00,,,0.26,Weather View 32 v70,2013-05-26 02:09:00,
2013-05-25 22:14:00,55.0,36.2,29.98,SW,225,3.0,18.0,49,0.00,,,0.26,Weather View 32 v70,2013-05-26 02:14:00,
2013-05-25 22:20:00,55.0,36.2,29.98,SW,225,4.0,18.0,49,0.00,,,0.26,Weather View 32 v70,2013-05-26 02:20:00,
2013-05-25 22:29:00,55.0,36.2,29.97,SSW,202,9.0,16.0,49,0.00,,,0.26,Weather View 32 v70,2013-05-26 02:29:00,
2013-05-25 22:39:00,55.0,36.2,29.97,WSW,248,8.0,16.0,49,0.00,,,0.26,Weather View 32 v70,2013-05-26 02:39:00,
2013-05-25 22:44:00,55.0,36.2,29.97,SW,225,8.0,16.0,49,0.00,,,0.26,Weather View 32 v70,2013-05-26 02:44:00,
2013-05-25 22:49:00,55.0,36.2,29.97,SSE,158,6.0,16.0,49,0.00,,,0.26,Weather View 32 v70,2013-05-26 02:49:00,
2013-05-25 22:59:00,55.0,36.2,29.97,South,180,6.0,16.0,49,0.00,,,0.26,Weather View 32 v70,2013-05-26 02:59:00,
2013-05-25 23:04:00,55.0,36.2,29.97,SW,225,5.0,16.0,49,0.00,,,0.26,Weather View 32 v70,2013-05-26 03:04:00,
2013-05-25 23:09:00,55.0,36.7,29.97,SSE,158,5.0,16.0,50,0.00,,,0.26,Weather View 32 v70,2013-05-26 03:09:00,
2013-05-25 23:19:00,54.0,35.7,29.97,SW,225,5.0,16.0,50,0.00,,,0.26,Weather View 32 v70,2013-05-26 03:19:00,
2013-05-25 23:24:00,54.0,35.7,29.97,SW,225,10.0,16.0,50,0.00,,,0.26,Weather View 32 v70,2013-05-26 03:24:00,
2013-05-25 23:29:00,54.0,36.2,29.97,South,180,6.0,16.0,51,0.00,,,0.26,Weather View 32 v70,2013-05-26 03:29:00,
2013-05-25 23:39:00,54.0,36.7,29.97,South,180,7.0,16.0,52,0.00,,,0.26,Weather View 32 v70,2013-05-26 03:39:00,
2013-05-25 23:49:00,54.0,37.2,29.97,SW,225,5.0,16.0,53,0.00,,,0.26,Weather View 32 v70,2013-05-26 03:49:00,
2013-05-25 23:54:00,53.0,36.3,29.97,SW,225,4.0,14.0,53,0.00,,,0.26,Weather View 32 v70,2013-05-26 03:54:00,
2013-05-25 23:59:00,53.0,36.3,29.97,SSW,202,3.0,14.0,53,-0.26,,,0.00,Weather View 32 v70,2013-05-26 03:59:00,